TimeEDT,TemperatureF,Dew PointF,Humidity,Sea Level PressureIn,VisibilityMPH,Wind Direction,Wind SpeedMPH,Gust SpeedMPH,PrecipitationIn,Events,Conditions,WindDirDegrees,DateUTC
12:54 AM,64.9,60.1,84,30.01,10.0,NNE,8.1,-,N/A,,Clear,20,2013-09-27 04:54:00
1:54 AM,64.0,60.1,87,30.01,10.0,NNE,8.1,-,N/A,,Clear,20,2013-09-27 05:54:00
2:54 AM,63.0,59.0,87,30.01,10.0,NNE,6.9,-,N/A,,Clear,20,2013-09-27 06:54:00
3:54 AM,62.1,59.0,90,30.00,10.0,NNE,8.1,-,N/A,,Clear,20,2013-09-27 07:54:00
4:54 AM,62.1,59.0,90,30.01,10.0,NNE,8.1,-,N/A,,Clear,20,2013-09-27 08:54:00
5:54 AM,62.1,59.0,90,30.02,10.0,North,6.9,-,N/A,,Clear,10,2013-09-27 09:54:00
6:54 AM,62.1,59.0,90,30.04,10.0,NNE,9.2,-,N/A,,Clear,20,2013-09-27 10:54:00
7:54 AM,64.0,60.1,87,30.06,10.0,NNE,8.1,-,N/A,,Clear,20,2013-09-27 11:54:00
8:54 AM,66.9,62.1,84,30.09,10.0,NNE,9.2,-,N/A,,Clear,20,2013-09-27 12:54:00
9:54 AM,71.1,60.1,68,30.10,10.0,NE,13.8,25.3,N/A,,Partly Cloudy,50,2013-09-27 13:54:00
10:54 AM,73.9,59.0,59,30.12,10.0,NE,15.0,-,N/A,,Partly Cloudy,40,2013-09-27 14:54:00
11:54 AM,75.9,57.0,52,30.12,10.0,NE,13.8,-,N/A,,Partly Cloudy,50,2013-09-27 15:54:00
12:54 PM,75.0,55.9,51,30.11,10.0,NNE,12.7,20.7,N/A,,Mostly Cloudy,30,2013-09-27 16:54:00
1:54 PM,75.0,55.0,50,30.10,10.0,NE,11.5,18.4,N/A,,Mostly Cloudy,40,2013-09-27 17:54:00
2:54 PM,75.9,51.1,42,30.09,10.0,NE,12.7,21.9,N/A,,Mostly Cloudy,40,2013-09-27 18:54:00
3:54 PM,75.0,53.1,46,30.08,10.0,NE,15.0,-,N/A,,Scattered Clouds,40,2013-09-27 19:54:00
4:54 PM,75.0,54.0,48,30.09,10.0,NNE,10.4,-,N/A,,Mostly Cloudy,20,2013-09-27 20:54:00
5:54 PM,71.1,55.0,57,30.10,10.0,NNE,13.8,-,N/A,,Mostly Cloudy,30,2013-09-27 21:54:00
6:54 PM,68.0,55.9,65,30.11,10.0,NNE,6.9,-,N/A,,Partly Cloudy,20,2013-09-27 22:54:00
7:36 PM,66.2,55.4,68,30.12,10.0,NNE,9.2,-,N/A,,Partly Cloudy,30,2013-09-27 23:36:00
7:54 PM,66.0,57.0,73,30.12,10.0,NNE,8.1,-,N/A,,Partly Cloudy,30,2013-09-27 23:54:00
8:54 PM,66.9,57.9,73,30.14,10.0,NNE,8.1,-,N/A,,Overcast,20,2013-09-28 00:54:00
9:54 PM,66.9,57.0,70,30.15,10.0,NNE,10.4,-,N/A,,Overcast,30,2013-09-28 01:54:00
10:54 PM,64.9,57.0,75,30.15,10.0,NNE,8.1,-,N/A,,Overcast,20,2013-09-28 02:54:00
11:54 PM,64.9,57.0,75,30.15,10.0,NNE,9.2,-,N/A,,Overcast,20,2013-09-28 03:54:00